Muncie, IN

10:21 PM EST on February 21, 2018 (GMT -0500)
Delaware County-Johnson

Weather History for KMIE - February, 2012

Change the Weather History Date:

Wednesday, February 22, 2012

  Actual Average Record
Temperature  
Mean Temperature 46 °F 32 °F  
Max Temperature 55 °F 40 °F 66 °F (1983)
Min Temperature 37 °F 23 °F -8 °F (1963)
Degree Days  
Heating Degree Days 19 33  
Month to date heating degree days 689 795  
Since 1 July heating degree days 3670 4188  
Cooling Degree Days 0 0  
Month to date cooling degree days 0 0  
Year to date cooling degree days 0 0  
Moisture  
Dew Point 32 °F    
Average Humidity 62    
Maximum Humidity 85    
Minimum Humidity 38    
Precipitation  
Precipitation 0.00 in 0.08 in 0.93 in (1990)
Month to date precipitation 0.91 1.81  
Year to date precipitation 3.28 4.04  
Sea Level Pressure  
Sea Level Pressure 29.56 in    
Wind  
Wind Speed 10 mph (SW)    
Max Wind Speed 23 mph    
Max Gust Speed 30 mph    
Visibility 10 miles    
Events      
T = Trace of Precipitation, MM = Missing Value Source: NWS Daily Summary

Daily Weather History Graph

Daily Weather History Graph

Search for Another Location

Airport or City:

Trip Planner

Search our weather history database for the weather conditions in past years. The results will help you decide how hot, cold, wet, or windy it might be!

Date:

Astronomy

Feb. 22, 2012 Rise Set
Actual Time 7:26 AM EST 6:24 PM EST
Civil Twilight 6:58 AM EST 6:52 PM EST
Nautical Twilight 6:26 AM EST 7:23 PM EST
Astronomical Twilight 5:55 AM EST 7:55 PM EST
Moon 7:23 AM EST 7:31 PM EST
Length of Visible Light 11h 53m
Length of Day
10h 58m
New Moon, 1% of the Moon is Illuminated
Feb 22
New Moon
Feb 29
First Quarter
Mar 8
Full
Mar 14
Last Quarter
Mar 22
New

Hourly Weather History & Observations

Time (EST) Temp. Windchill Dew Point Humidity Pressure Visibility Wind Dir Wind Speed Gust Speed Precip Events Conditions
12:53 AM 39.9 °F 35.1 °F 30.9 °F 70% 29.78 in 10.0 mi SW 6.9 mph - N/A   Clear
1:53 AM 39.0 °F 32.3 °F 30.9 °F 73% 29.77 in 10.0 mi SSW 10.4 mph - N/A   Clear
2:53 AM 39.0 °F 31.4 °F 30.9 °F 73% 29.75 in 10.0 mi SSW 12.7 mph - N/A   Clear
3:53 AM 39.0 °F 32.3 °F 30.9 °F 73% 29.72 in 10.0 mi SSW 10.4 mph - N/A   Partly Cloudy
4:53 AM 37.9 °F 30.9 °F 33.1 °F 83% 29.70 in 10.0 mi SSW 10.4 mph 19.6 mph N/A   Mostly Cloudy
5:53 AM 39.0 °F 32.8 °F 33.1 °F 79% 29.70 in 10.0 mi SW 9.2 mph - N/A   Scattered Clouds
6:53 AM 37.9 °F 33.5 °F 32.0 °F 79% 29.68 in 10.0 mi SW 5.8 mph - N/A   Overcast
7:53 AM 37.9 °F 32.7 °F 30.0 °F 73% 29.65 in 10.0 mi SSW 6.9 mph - N/A   Partly Cloudy
8:53 AM 39.0 °F 32.3 °F 30.9 °F 73% 29.64 in 10.0 mi SSW 10.4 mph - N/A   Partly Cloudy
9:53 AM 39.9 °F 33.9 °F 32.0 °F 73% 29.62 in 10.0 mi South 9.2 mph - N/A   Overcast
10:53 AM 46.0 °F 40.6 °F 34.0 °F 63% 29.58 in 10.0 mi SSW 11.5 mph - N/A   Partly Cloudy
11:53 AM 51.1 °F - 34.0 °F 52% 29.54 in 10.0 mi SW 10.4 mph 17.3 mph N/A   Mostly Cloudy
12:53 PM 52.0 °F - 30.0 °F 43% 29.50 in 10.0 mi SW 16.1 mph 25.3 mph N/A   Scattered Clouds
1:53 PM 54.0 °F - 28.9 °F 38% 29.46 in 10.0 mi SW 17.3 mph 29.9 mph N/A   Mostly Cloudy
2:53 PM 53.1 °F - 28.0 °F 38% 29.44 in 10.0 mi SSW 15.0 mph 25.3 mph N/A   Overcast
3:53 PM 52.0 °F - 28.0 °F 40% 29.44 in 10.0 mi SW 13.8 mph 20.7 mph N/A   Overcast
4:53 PM 53.1 °F - 28.9 °F 40% 29.40 in 10.0 mi SSW 11.5 mph - N/A   Overcast
5:53 PM 52.0 °F - 28.9 °F 41% 29.40 in 10.0 mi WSW 9.2 mph - N/A   Overcast
6:53 PM 50.0 °F - 30.9 °F 48% 29.40 in 10.0 mi West 5.8 mph - N/A   Mostly Cloudy
7:53 PM 45.0 °F 40.1 °F 35.1 °F 68% 29.43 in 10.0 mi NW 9.2 mph - N/A   Overcast
8:53 PM 42.1 °F 39.2 °F 35.1 °F 76% 29.46 in 10.0 mi WNW 4.6 mph - N/A   Mostly Cloudy
9:53 PM 42.1 °F 38.4 °F 34.0 °F 73% 29.47 in 10.0 mi SW 5.8 mph - N/A   Clear
10:53 PM 41.0 °F 38.0 °F 34.0 °F 76% 29.47 in 10.0 mi WSW 4.6 mph - N/A   Clear
11:53 PM 39.0 °F 35.7 °F 33.1 °F 79% 29.47 in 10.0 mi WSW 4.6 mph - N/A   Clear